Weather History for Charlevoix, MI

Change the Weather History Date:

Saturday, December 24, 2011

  Actual Average Record
Temperature  
Mean Temperature 28 °F -  
Max Temperature 35 °F 27 °F 42 °F (2006)
Min Temperature 23 °F 16 °F -5 °F (2013)
Degree Days  
Heating Degree Days 36    
Moisture  
Dew Point 26 °F    
Average Humidity 85    
Maximum Humidity 93    
Minimum Humidity 75    
Precipitation  
Precipitation 0.00 in - - ()
Sea Level Pressure  
Sea Level Pressure 30.15 in    
Wind  
Wind Speed 8 mph (SSE)    
Max Wind Speed 14 mph    
Max Gust Speed 21 mph    
Visibility 10 miles    
Events Snow    
Averages and records for this station are not official NWS values.
T = Trace of Precipitation, MM = Missing Value Source: NWS Daily Summary

Daily Weather History Graph

Daily Weather History Graph

Search for Another Location

Airport:

Trip Planner

Search our weather history database for the weather conditions in past years. The results will help you decide how hot, cold, wet, or windy it might be!

Date:

Astronomy

Dec. 24, 2011 Rise Set
Actual Time 8:18 AM EST 5:02 PM EST
Civil Twilight 7:44 AM EST 5:36 PM EST
Nautical Twilight 7:07 AM EST 6:14 PM EST
Astronomical Twilight 6:31 AM EST 6:50 PM EST
Moon 8:06 AM EST (12/24) 5:15 PM EST (12/24)
Length of Visible Light 9h 52m
Length of Day
8h 43m
Waning Crescent, 0% of the Moon is Illuminated
Dec 24
Waning Crescent
Dec 24
New
Jan 1
First Quarter
Jan 9
Full
Jan 16
Last Quarter

Hourly Weather History & Observations

Time (EST) Temp. Windchill Dew Point Humidity Pressure Visibility Wind Dir Wind Speed Gust Speed Precip Events Conditions
12:14 AM 25.2 °F 17.3 °F 22.8 °F 91% 30.18 in 10.0 mi SSE 6.9 mph - N/A   Mostly Cloudy
12:34 AM 25.2 °F 17.3 °F 22.8 °F 91% 30.18 in 10.0 mi SE 6.9 mph - N/A Snow Light Snow
12:55 AM 24.8 °F 16.9 °F 22.6 °F 91% 30.18 in 10.0 mi SE 6.9 mph - N/A   Overcast
1:14 AM 24.8 °F 16.1 °F 22.5 °F 91% 30.17 in 10.0 mi SE 8.1 mph - N/A   Mostly Cloudy
1:34 AM 23.9 °F 15.8 °F 22.1 °F 93% 30.17 in 10.0 mi SE 6.9 mph - N/A   Scattered Clouds
1:55 AM 23.9 °F 18.0 °F 22.1 °F 93% 30.19 in 10.0 mi SE 4.6 mph - N/A   Scattered Clouds
2:14 AM 24.4 °F 17.5 °F 22.5 °F 92% 30.19 in 10.0 mi SE 5.8 mph - N/A   Mostly Cloudy
2:34 AM 24.8 °F 16.9 °F 22.6 °F 91% 30.19 in 10.0 mi SE 6.9 mph - N/A   Overcast
3:14 AM 24.8 °F 16.9 °F 22.8 °F 92% 30.21 in 10.0 mi SE 6.9 mph - N/A   Overcast
3:34 AM 25.2 °F 16.5 °F 23.0 °F 91% 30.20 in 10.0 mi SE 8.1 mph - N/A   Overcast
3:55 AM 25.3 °F 17.6 °F 23.0 °F 91% 30.21 in 10.0 mi SSE 6.9 mph - N/A   Overcast
4:14 AM 25.7 °F 18.0 °F 23.2 °F 90% 30.20 in 10.0 mi SE 6.9 mph - N/A   Overcast
4:35 AM 25.7 °F 17.1 °F 23.5 °F 92% 30.21 in 10.0 mi SSE 8.1 mph - N/A   Overcast
4:54 AM 25.9 °F 17.4 °F 23.5 °F 91% 30.21 in 10.0 mi SE 8.1 mph - N/A   Overcast
5:35 AM 26.6 °F 17.5 °F 24.1 °F 90% 30.22 in 10.0 mi SSE 9.2 mph - N/A   Overcast
5:54 AM 26.6 °F 19.1 °F 24.1 °F 90% 30.22 in 10.0 mi SSE 6.9 mph - N/A   Overcast
6:14 AM 27.1 °F 18.9 °F 24.6 °F 90% 30.22 in 10.0 mi SSE 8.1 mph - N/A   Overcast
6:34 AM 27.3 °F 19.9 °F 24.8 °F 90% 30.23 in 10.0 mi South 6.9 mph - N/A   Overcast
6:54 AM 27.5 °F 20.2 °F 25.3 °F 92% 30.23 in 10.0 mi SSE 6.9 mph - N/A Snow Light Snow
7:15 AM 27.5 °F 20.2 °F 25.3 °F 92% 30.23 in 10.0 mi SSE 6.9 mph - N/A   Overcast
7:34 AM 27.5 °F 18.6 °F 25.3 °F 92% 30.23 in 10.0 mi SSE 9.2 mph - N/A   Overcast
7:54 AM 27.7 °F 20.4 °F 25.3 °F 91% 30.24 in 10.0 mi SSE 6.9 mph - N/A   Overcast
8:15 AM 28.0 °F 20.0 °F 25.5 °F 90% 30.23 in 10.0 mi SSE 8.1 mph - N/A   Overcast
8:34 AM 28.2 °F 20.2 °F 25.7 °F 90% 30.23 in 10.0 mi SSE 8.1 mph - N/A   Overcast
8:54 AM 28.2 °F 22.0 °F 25.7 °F 90% 30.24 in 10.0 mi SSE 5.8 mph - N/A   Overcast
9:14 AM 28.2 °F 21.0 °F 25.7 °F 90% 30.25 in 10.0 mi SSE 6.9 mph - N/A   Overcast
9:34 AM 28.4 °F 22.2 °F 25.9 °F 90% 30.25 in 7.0 mi SSE 5.8 mph - N/A Snow Light Snow
9:54 AM 28.4 °F 21.2 °F 26.1 °F 91% 30.26 in 5.0 mi SSE 6.9 mph - N/A Snow Light Snow
10:15 AM 28.8 °F 22.6 °F 26.1 °F 90% 30.25 in 10.0 mi SSE 5.8 mph - N/A Snow Light Snow
10:34 AM 29.3 °F 22.3 °F 26.2 °F 88% 30.25 in 7.0 mi SSE 6.9 mph - N/A Snow Light Snow
10:54 AM 29.7 °F 22.8 °F 26.4 °F 88% 30.25 in 7.0 mi SSE 6.9 mph - N/A Snow Light Snow
11:14 AM 30.0 °F 23.2 °F 26.6 °F 87% 30.24 in 10.0 mi SE 6.9 mph - N/A   Overcast
11:34 AM 30.0 °F 24.1 °F 26.6 °F 87% 30.23 in 10.0 mi SSE 5.8 mph - N/A   Overcast
11:55 AM 30.7 °F 23.3 °F 27.1 °F 86% 30.22 in 7.0 mi SSE 8.1 mph - N/A Snow Light Snow
12:15 PM 31.1 °F 25.4 °F 26.6 °F 83% 30.20 in 10.0 mi South 5.8 mph - N/A   Overcast
12:54 PM 32.0 °F 24.8 °F 25.0 °F 75% 30.18 in 10.0 mi South 8.1 mph - N/A   Overcast
1:14 PM 32.0 °F 24.2 °F 25.9 °F 78% 30.17 in 10.0 mi SSE 9.2 mph - N/A   Overcast
1:35 PM 32.0 °F 24.8 °F 25.9 °F 78% 30.15 in 10.0 mi South 8.1 mph - N/A   Overcast
1:54 PM 32.2 °F 25.0 °F 25.9 °F 78% 30.14 in 10.0 mi South 8.1 mph 16.1 mph N/A   Overcast
2:14 PM 32.4 °F 26.0 °F 26.2 °F 78% 30.14 in 10.0 mi South 6.9 mph - N/A   Overcast
2:35 PM 32.5 °F 25.5 °F 26.6 °F 79% 30.12 in 10.0 mi SSE 8.1 mph - N/A   Overcast
2:54 PM 32.9 °F 25.9 °F 27.0 °F 79% 30.11 in 10.0 mi SSE 8.1 mph - N/A   Overcast
3:14 PM 33.1 °F 26.1 °F 27.3 °F 79% 30.10 in 10.0 mi SSE 8.1 mph - N/A   Overcast
3:35 PM 33.4 °F 28.1 °F 27.3 °F 78% 30.09 in 10.0 mi South 5.8 mph - N/A   Overcast
4:14 PM 33.8 °F 27.0 °F 27.3 °F 77% 30.08 in 10.0 mi South 8.1 mph - N/A   Overcast
4:35 PM 33.8 °F 27.0 °F 27.3 °F 77% 30.07 in 10.0 mi South 8.1 mph - N/A   Overcast
4:54 PM 33.8 °F 26.4 °F 27.3 °F 77% 30.07 in 10.0 mi South 9.2 mph - N/A   Overcast
5:14 PM 34.0 °F 26.6 °F 27.5 °F 77% 30.07 in 10.0 mi South 9.2 mph - N/A   Overcast
5:35 PM 34.0 °F 25.0 °F 27.3 °F 77% 30.06 in 10.0 mi South 12.7 mph 17.3 mph N/A   Overcast
5:54 PM 33.8 °F 25.8 °F 27.3 °F 77% 30.05 in 10.0 mi South 10.4 mph 16.1 mph N/A   Overcast
6:14 PM 33.3 °F 25.7 °F 27.5 °F 79% 30.05 in 10.0 mi South 9.2 mph - N/A   Overcast
6:34 PM 33.1 °F 23.9 °F 27.3 °F 79% 30.04 in 10.0 mi South 12.7 mph - N/A   Overcast
6:54 PM 33.3 °F 24.1 °F 27.3 °F 79% 30.04 in 10.0 mi South 12.7 mph 16.1 mph N/A   Overcast
7:15 PM 33.8 °F 24.8 °F 27.3 °F 77% 30.04 in 10.0 mi South 12.7 mph 17.3 mph N/A   Overcast
7:34 PM 33.8 °F 25.3 °F 27.3 °F 77% 30.03 in 10.0 mi South 11.5 mph 17.3 mph N/A   Overcast
7:54 PM 33.8 °F 26.4 °F 27.5 °F 78% 30.02 in 10.0 mi South 9.2 mph 19.6 mph N/A   Overcast
8:15 PM 33.8 °F 27.0 °F 28.0 °F 79% 30.01 in 10.0 mi South 8.1 mph 16.1 mph N/A   Overcast
8:34 PM 34.2 °F 24.8 °F 28.6 °F 80% 30.00 in 10.0 mi South 13.8 mph 18.4 mph N/A   Overcast
8:54 PM 34.7 °F 26.4 °F 29.3 °F 81% 29.99 in 10.0 mi SSW 11.5 mph 17.3 mph N/A   Overcast
9:14 PM 34.7 °F 25.9 °F 29.8 °F 82% 29.97 in 10.0 mi SSW 12.7 mph 20.7 mph N/A   Overcast
9:34 PM 34.9 °F 26.6 °F 30.2 °F 83% 29.97 in 10.0 mi SW 11.5 mph - N/A   Overcast
9:55 PM 35.6 °F 28.6 °F 29.8 °F 80% 29.96 in 10.0 mi SSW 9.2 mph 17.3 mph N/A   Overcast
10:14 PM 35.6 °F 28.0 °F 29.8 °F 80% 29.96 in 10.0 mi SW 10.4 mph 19.6 mph N/A   Overcast
10:34 PM 35.6 °F 27.5 °F 30.0 °F 80% 29.95 in 10.0 mi SW 11.5 mph - N/A   Overcast
10:55 PM 36.7 °F 27.6 °F 28.6 °F 72% 29.94 in 10.0 mi SW 15.0 mph 20.7 mph N/A   Overcast
11:14 PM 36.9 °F 28.7 °F 28.4 °F 71% 29.94 in 10.0 mi SW 12.7 mph 20.7 mph N/A   Overcast
11:34 PM 36.7 °F 28.4 °F 28.4 °F 72% 29.93 in 10.0 mi SW 12.7 mph 20.7 mph N/A   Overcast
11:55 PM 36.7 °F 26.9 °F 28.4 °F 72% 29.93 in 10.0 mi WSW 17.3 mph 25.3 mph N/A   Overcast